Zurück zum Katalog

AMAZONAS 5

AktivKommunikationGEO
NORAD 42934·PAYLOAD·🇧🇷 Brazil

Gestartet Sep 11, 2017 von Baikonur Cosmodrome

Loading…

TLE

AktuellSource: Space-Track

Epoche: Sep 14, 2026, 10:05 UTC

1 42934U 17053A   26257.42051113 -.00000291  00000-0  00000-0 0  9990
2 42934   0.0477 334.8723 0002078 233.5924 235.3159  1.00270958 32934

Verfolge AMAZONAS 5 in Echtzeit mit AllMySat

Download on the App Store